| time (UTC) | temp F | wind direction | speed MPH | gust MPH | rain 1hr in | rain 24hr in | rain mn in | humidity % | barometer mb |
| 20260507133002 | 35 | 360 | 14.0 | 20.0 | 0.01 | 0.03 | 0.02 | 80 | 1016.3 |
| 20260507131610 | 35 | 360 | 10.0 | 18.0 | 0.01 | 0.03 | 0.02 | 82 | 1016.2 |
| 20260507130053 | 35 | 360 | 10.0 | 15.0 | 0.01 | 0.03 | 0.02 | 84 | 1016.2 |
| 20260507124600 | 33 | 360 | 6.0 | 14.0 | 0.00 | 0.02 | 0.02 | 88 | 1016.1 |
| 20260507123056 | 32 | 360 | 8.0 | 12.0 | 0.00 | 0.02 | 0.02 | 91 | 1016.1 |
| 20260507121545 | 32 | 360 | 14.0 | 21.0 | 0.00 | 0.02 | 0.02 | 92 | 1016.3 |
| 20260507120050 | 31 | 360 | 9.0 | 19.0 | 0.00 | 0.02 | 0.02 | 94 | 1016.3 |
| 20260507114544 | 33 | 360 | 4.0 | 8.0 | 0.00 | 0.03 | 0.02 | 84 | 1016.1 |
| 20260507113044 | 33 | 360 | 6.0 | 9.0 | 0.00 | 0.03 | 0.02 | 85 | 1015.7 |
| 20260507111555 | 31 | 360 | 8.0 | 11.0 | 0.00 | 0.03 | 0.02 | 90 | 1015.5 |
| 20260507110058 | 31 | 360 | 10.0 | 21.0 | 0.00 | 0.03 | 0.02 | 94 | 1015.4 |
| 20260507104551 | 34 | 360 | 17.0 | 23.0 | 0.00 | 0.03 | 0.02 | 80 | 1015.6 |
| 20260507103055 | 34 | 360 | 11.0 | 18.0 | 0.00 | 0.03 | 0.02 | 77 | 1015.2 |
| 20260507101552 | 34 | 360 | 9.0 | 15.0 | 0.00 | 0.03 | 0.02 | 83 | 1015.0 |
| 20260507100048 | 35 | 360 | 10.0 | 15.0 | 0.00 | 0.03 | 0.02 | 81 | 1014.9 |
| 20260507094552 | 33 | 360 | 9.0 | 14.0 | 0.00 | 0.04 | 0.02 | 84 | 1014.7 |
| 20260507093059 | 34 | 360 | 10.0 | 15.0 | 0.00 | 0.04 | 0.02 | 83 | 1014.7 |
| 20260507091550 | 34 | 360 | 6.0 | 18.0 | 0.00 | 0.04 | 0.02 | 81 | 1014.7 |
| 20260507090052 | 34 | 360 | 3.0 | 16.0 | 0.00 | 0.04 | 0.02 | 81 | 1014.5 |
| 20260507084504 | 34 | 360 | 9.0 | 20.0 | 0.00 | 0.04 | 0.02 | 82 | 1014.3 |
| 20260507083045 | 34 | 360 | 9.0 | 17.0 | 0.00 | 0.04 | 0.02 | 84 | 1014.3 |
| 20260507081553 | 33 | 360 | 9.0 | 18.0 | 0.00 | 0.04 | 0.02 | 86 | 1014.3 |
| 20260507080108 | 33 | 360 | 9.0 | 16.0 | 0.00 | 0.04 | 0.02 | 87 | 1014.3 |
| 20260507074551 | 33 | 360 | 10.0 | 18.0 | 0.00 | 0.04 | 0.02 | 86 | 1014.2 |
| 20260507073051 | 33 | 360 | 11.0 | 16.0 | 0.00 | 0.04 | 0.02 | 84 | 1014.0 |
| 20260507071602 | 33 | 360 | 6.0 | 11.0 | 0.00 | 0.04 | 0.02 | 84 | 1013.9 |
| 20260507070047 | 33 | 360 | 7.0 | 11.0 | 0.00 | 0.04 | 0.02 | 86 | 1013.8 |
| 20260507064557 | 32 | 360 | 7.0 | 12.0 | 0.00 | 0.04 | 0.02 | 86 | 1013.6 |
| 20260507063103 | 33 | 360 | 4.0 | 10.0 | 0.00 | 0.04 | 0.02 | 88 | 1013.5 |
| 20260507061550 | 32 | 360 | 3.0 | 10.0 | 0.02 | 0.04 | 0.02 | 88 | 1013.4 |
| 20260507060056 | 33 | 360 | 1.0 | 7.0 | 0.02 | 0.04 | 0.02 | 91 | 1013.4 |
| 20260507054544 | 32 | 360 | 2.0 | 5.0 | 0.02 | 0.04 | 0.02 | 92 | 1013.3 |
| 20260507053111 | 32 | 360 | 2.0 | 5.0 | 0.02 | 0.04 | 0.02 | 91 | 1013.1 |
| 20260507051606 | 31 | 360 | 3.0 | 6.0 | 0.00 | 0.02 | 0.00 | 95 | 1013.1 |
| 20260507050057 | 31 | 360 | 2.0 | 6.0 | 0.00 | 0.02 | 0.00 | 94 | 1013.1 |
| 20260507044546 | 31 | 360 | 5.0 | 7.0 | 0.00 | 0.03 | 0.00 | 94 | 1013.1 |
| 20260507043053 | 30 | 360 | 3.0 | 6.0 | 0.00 | 0.03 | 0.00 | 98 | 1013.1 |
| 20260507041546 | 30 | 360 | 5.0 | 7.0 | 0.00 | 0.03 | 0.00 | 98 | 1013.1 |
| 20260507040045 | 30 | 360 | 2.0 | 5.0 | 0.00 | 0.03 | 0.00 | 99 | 1013.0 |
| 20260507034555 | 30 | 360 | 4.0 | 6.0 | 0.00 | 0.03 | 0.00 | 98 | 1012.9 |
| 20260507033100 | 30 | 360 | 2.0 | 5.0 | 0.00 | 0.03 | 0.00 | 97 | 1012.9 |
| 20260507031549 | 31 | 360 | 2.0 | 5.0 | 0.00 | 0.03 | 0.00 | 96 | 1012.8 |
| 20260507030046 | 30 | 360 | 2.0 | 4.0 | 0.00 | 0.03 | 0.00 | 96 | 1012.7 |
| 20260507024601 | 30 | 360 | 3.0 | 4.0 | 0.00 | 0.03 | 0.00 | 96 | 1012.5 |
| 20260507023059 | 31 | 360 | 0.0 | 6.0 | 0.00 | 0.03 | 0.00 | 95 | 1012.5 |
| 20260507021547 | 31 | 360 | 8.0 | 11.0 | 0.00 | 0.03 | 0.00 | 94 | 1012.4 |
| 20260507020045 | 30 | 360 | 4.0 | 6.0 | 0.00 | 0.03 | 0.00 | 97 | 1012.4 |
| 20260507014617 | 30 | 360 | 3.0 | 4.0 | 0.00 | 0.03 | 0.00 | 97 | 1012.3 |
| 20260507013055 | 30 | 360 | 3.0 | 6.0 | 0.00 | 0.03 | 0.00 | 97 | 1012.3 |
| 20260507011546 | 30 | 360 | 2.0 | 4.0 | 0.00 | 0.03 | 0.00 | 99 | 1012.2 |
| 20260507010104 | 30 | 360 | 5.0 | 8.0 | 0.00 | 0.03 | 0.00 | 98 | 1012.3 |
| 20260507004546 | 30 | 360 | 5.0 | 10.0 | 0.00 | 0.03 | 0.00 | 96 | 1012.2 |
| 20260507003046 | 30 | 360 | 3.0 | 6.0 | 0.00 | 0.03 | 0.00 | 94 | 1012.0 |
| 20260507001558 | 30 | 360 | 1.0 | 7.0 | 0.00 | 0.03 | 0.00 | 94 | 1012.0 |
| 20260507000045 | 30 | 360 | 5.0 | 8.0 | 0.00 | 0.03 | 0.00 | 95 | 1011.9 |
| 20260506234556 | 30 | 360 | 1.0 | 3.0 | 0.00 | 0.03 | 0.00 | 98 | 1011.8 |
| 20260506233059 | 30 | 360 | 1.0 | 3.0 | 0.00 | 0.03 | 0.00 | 97 | 1011.8 |
| 20260506231553 | 31 | 360 | 2.0 | 4.0 | 0.00 | 0.03 | 0.00 | 95 | 1011.7 |
| 20260506230053 | 31 | 360 | 0.0 | 3.0 | 0.00 | 0.03 | 0.00 | 95 | 1011.5 |
| 20260506224544 | 31 | 360 | 0.0 | 3.0 | 0.00 | 0.03 | 0.00 | 94 | 1011.4 |
| 20260506223050 | 31 | 360 | 4.0 | 5.0 | 0.00 | 0.03 | 0.00 | 94 | 1011.3 |
| 20260506221540 | 31 | 360 | 5.0 | 8.0 | 0.00 | 0.03 | 0.00 | 94 | 1011.2 |
| 20260506220047 | 31 | 360 | 7.0 | 9.0 | 0.00 | 0.03 | 0.00 | 93 | 1011.2 |
| 20260506214602 | 31 | 360 | 7.0 | 10.0 | 0.00 | 0.03 | 0.03 | 92 | 1011.1 |
| 20260506213052 | 31 | 360 | 6.0 | 9.0 | 0.00 | 0.03 | 0.03 | 92 | 1011.1 |
| 20260506211543 | 31 | 360 | 6.0 | 9.0 | 0.00 | 0.03 | 0.03 | 92 | 1011.0 |
| 20260506210044 | 31 | 360 | 9.0 | 10.0 | 0.00 | 0.03 | 0.03 | 93 | 1010.9 |
| 20260506204600 | 31 | 360 | 7.0 | 9.0 | 0.00 | 0.03 | 0.03 | 93 | 1010.9 |
| 20260506203042 | 31 | 360 | 6.0 | 8.0 | 0.00 | 0.03 | 0.03 | 95 | 1010.8 |
| 20260506201554 | 31 | 360 | 3.0 | 4.0 | 0.00 | 0.03 | 0.03 | 95 | 1010.9 |
| 20260506200106 | 31 | 360 | 3.0 | 6.0 | 0.00 | 0.03 | 0.03 | 96 | 1010.9 |
| 20260506194550 | 31 | 360 | 2.0 | 4.0 | 0.00 | 0.03 | 0.03 | 95 | 1010.8 |
| 20260506193054 | 31 | 360 | 2.0 | 3.0 | 0.00 | 0.03 | 0.03 | 94 | 1010.8 |
| 20260506191608 | 31 | 360 | 1.0 | 4.0 | 0.00 | 0.03 | 0.03 | 93 | 1010.7 |
| 20260506190040 | 31 | 360 | 4.0 | 6.0 | 0.00 | 0.03 | 0.03 | 92 | 1010.6 |
| 20260506184553 | 31 | 360 | 3.0 | 5.0 | 0.00 | 0.03 | 0.03 | 93 | 1010.6 |
| 20260506183053 | 32 | 360 | 3.0 | 4.0 | 0.00 | 0.03 | 0.03 | 94 | 1010.5 |
| 20260506181556 | 32 | 360 | 0.0 | 0.0 | 0.00 | 0.03 | 0.03 | 95 | 1010.5 |
| 20260506180104 | 32 | 360 | 0.0 | 0.0 | 0.00 | 0.03 | 0.03 | 96 | 1010.5 |
| 20260506174554 | 32 | 360 | 0.0 | 0.0 | 0.00 | 0.03 | 0.03 | 97 | 1010.5 |
| 20260506173119 | 32 | 360 | 0.0 | 1.0 | 0.00 | 0.03 | 0.03 | 97 | 1010.6 |
| 20260506171544 | 31 | 360 | 2.0 | 4.0 | 0.01 | 0.03 | 0.03 | 98 | 1010.5 |
| 20260506170002 | 30 | 360 | 3.0 | 5.0 | 0.01 | 0.03 | 0.03 | 99 | 1010.5 |
| 20260506164552 | 30 | 360 | 2.0 | 5.0 | 0.01 | 0.03 | 0.03 | 99 | 1010.6 |
| 20260506163058 | 30 | 360 | 4.0 | 5.0 | 0.01 | 0.03 | 0.03 | 99 | 1010.6 |
| 20260506161601 | 30 | 360 | 3.0 | 5.0 | 0.00 | 0.02 | 0.02 | 99 | 1010.6 |
| 20260506154549 | 30 | 360 | 4.0 | 6.0 | 0.00 | 0.02 | 0.02 | 99 | 1010.5 |
| 20260506153048 | 30 | 360 | 4.0 | 7.0 | 0.00 | 0.02 | 0.02 | 99 | 1010.4 |
| 20260506151501 | 31 | 360 | 5.0 | 8.0 | 0.00 | 0.02 | 0.02 | 98 | 1010.2 |
| 20260506144606 | 31 | 360 | 6.0 | 8.0 | 0.00 | 0.02 | 0.02 | 97 | 1010.0 |
| 20260506143058 | 31 | 360 | 5.0 | 8.0 | 0.00 | 0.02 | 0.02 | 95 | 1009.9 |
| 20260506141546 | 32 | 360 | 7.0 | 10.0 | 0.00 | 0.02 | 0.02 | 91 | 1009.8 |
| 20260506140048 | 32 | 360 | 2.0 | 5.0 | 0.00 | 0.02 | 0.02 | 92 | 1009.7 |
| 20260506134603 | 32 | 360 | 5.0 | 9.0 | 0.00 | 0.02 | 0.02 | 91 | 1009.7 |